Location: Raleigh
(35.7720°N, 78.6390°W)
Time: 04:52:44
(UTC-05:00)

Amateur Radio Satellites - All Passes

Search period start: 08 December 2016 04:22
Search period end: 09 December 2016 04:22
Location: Raleigh, 35.7720°N, 78.6390°W

Satellite Date Start Highest point End Downlink Frequencies (MHz)
Time Altitude Azimuth
YUBILEINY 08 Dec 04:36:11 04:41:42 18° 66° (ENE) 04:47:11 435.215
MOZHAYETS 4 08 Dec 04:38:52 04:39:26 10° 269° (W) 04:40:00
BRITE-PL 08 Dec 04:41:31 04:46:26 31° 96° (E) 04:51:25 437.365/2234.400
CUBESAT XI-V 08 Dec 04:42:56 04:47:30 68° 259° (W) 04:52:05 437.345
RS-15 08 Dec 04:45:26 04:47:14 10° 94° (E) 04:49:02 29.354- 29.394
STARS 08 Dec 04:48:44 04:52:50 37° 261° (W) 04:56:58 437.465
KKS-1 08 Dec 04:50:21 04:53:17 17° 266° (W) 04:56:14 437.445
SO-50 08 Dec 04:50:40 04:55:11 84° 60° (ENE) 04:59:38 436.795
ITAMSAT 1 08 Dec 04:55:16 04:57:53 14° 297° (WNW) 05:00:28 435.822/435.867
Cosmos 2491 08 Dec 05:05:05 05:08:34 13° 77° (ENE) 05:12:02 435.465 / 435.565
BEESAT 3 08 Dec 05:08:25 05:11:50 29° 305° (NW) 05:15:20 437.485
NOAA 15 08 Dec 05:20:42 05:23:49 16° 93° (E) 05:26:55 137.62
Cubesat XI-IV 08 Dec 05:31:28 05:35:03 18° 94° (E) 05:38:37 437.490
AO-7 08 Dec 05:33:57 05:40:45 29° 301° (WNW) 05:47:34 29.400- 29.500
NOAA 18 08 Dec 05:34:39 05:36:12 11° 91° (E) 05:37:45 137.9125
LilacSat-2 08 Dec 05:37:58 05:40:37 18° 95° (E) 05:43:16 437.200
AIST 1 08 Dec 05:42:00 05:43:37 12° 72° (ENE) 05:45:16
BEESAT 2 08 Dec 05:42:23 05:45:49 28° 306° (NW) 05:49:18 435.950
GOMX 1 08 Dec 05:43:55 05:49:19 53° 99° (E) 05:54:36 467.674
DOVE 4 08 Dec 05:44:06 05:48:03 21° 93° (E) 05:51:52 437.250
HORYU 2 08 Dec 05:56:38 06:01:00 62° 286° (WNW) 06:05:20 437.375
STRAND 1 08 Dec 05:59:52 06:04:07 27° 68° (ENE) 06:08:23 437.568
Cosmos 2504 08 Dec 06:13:29 06:21:27 38° 74° (ENE) 06:28:55 435.465 / 435.565
BRITE-PL 08 Dec 06:19:55 06:24:45 32° 290° (WNW) 06:29:43 437.365/2234.400
YUBILEINY 08 Dec 06:30:41 06:39:34 86° 264° (W) 06:48:24 435.215
CUTE-I 08 Dec 06:43:18 06:48:38 86° 285° (WNW) 06:53:57 437.470
RS-15 08 Dec 06:45:40 06:57:05 65° 112° (ESE) 07:09:04 29.354- 29.394
CINEMA 3 08 Dec 06:46:13 06:49:41 20° 93° (E) 06:53:01 145.822/145.860
AIST 2 08 Dec 06:51:45 06:55:21 31° 113° (ESE) 06:59:01 435.215
Cosmos 2491 08 Dec 06:55:09 07:03:56 82° 95° (E) 07:12:43 435.465 / 435.565
NOAA 15 08 Dec 06:58:43 07:03:52 55° 287° (WNW) 07:09:01 137.62
Cubesat XI-IV 08 Dec 07:10:13 07:15:20 48° 288° (WNW) 07:20:24 437.490
LilacSat-2 08 Dec 07:11:49 07:14:51 24° 289° (WNW) 07:17:52 437.200
NOAA 18 08 Dec 07:11:51 07:17:23 78° 286° (WNW) 07:22:52 137.9125
AIST 1 08 Dec 07:17:14 07:21:30 49° 267° (W) 07:25:44
DOVE 4 08 Dec 07:20:56 07:25:49 40° 288° (WNW) 07:30:32 437.250
GOMX 1 08 Dec 07:23:09 07:26:52 19° 294° (WNW) 07:30:35 467.674
HO-68 08 Dec 07:24:25 07:31:04 39° 99° (E) 07:37:41 435.675
STRAND 1 08 Dec 07:38:38 07:43:09 31° 263° (W) 07:47:41 437.568
CUTE 1.7 + AOD 2 08 Dec 07:49:14 07:53:25 61° 100° (E) 07:57:36 437.475
AAUSAT CUBESAT 2 08 Dec 08:01:51 08:05:22 26° 96° (E) 08:08:53 437.432
ZACube-1 08 Dec 08:03:58 08:04:51 11° 91° (E) 08:05:45 437.345
Cosmos 2504 08 Dec 08:06:50 08:14:48 42° 273° (W) 08:22:17 435.465 / 435.565
CANX-2 08 Dec 08:07:45 08:11:57 66° 284° (WNW) 08:16:08 2200.000
PRISM 08 Dec 08:08:36 08:12:15 33° 71° (ENE) 08:15:54 437.425
FUNcube-1 08 Dec 08:09:45 08:11:11 12° 92° (E) 08:12:37 145.935
ANTELSAT 08 Dec 08:22:35 08:23:50 11° 64° (ENE) 08:25:05 437.575/2403.000
CINEMA 3 08 Dec 08:22:38 08:26:52 33° 289° (WNW) 08:30:55 145.822/145.860
CUBEBUG 2 08 Dec 08:24:15 08:28:32 58° 100° (E) 08:32:40 437.445
SEEDS 08 Dec 08:28:12 08:32:22 67° 283° (WNW) 08:36:31 437.485
AIST 2 08 Dec 08:30:41 08:33:50 21° 309° (NW) 08:37:03 435.215
YUBILEINY 08 Dec 08:30:56 08:34:56 14° 283° (WNW) 08:38:57 435.215
COMPASS 1 08 Dec 08:34:00 08:38:11 89° 283° (WNW) 08:42:22 437.405
Oscar 11 08 Dec 08:35:29 08:39:01 24° 96° (E) 08:42:32 145.826/435.025
CUSAT 1 08 Dec 08:42:27 08:45:06 23° 96° (E) 08:47:25 437.405
Cosmos 2491 08 Dec 08:56:07 09:01:45 18° 293° (WNW) 09:07:25 435.465 / 435.565
RS-15 08 Dec 08:59:29 09:10:17 39° 315° (NW) 09:21:33 29.354- 29.394
UWE-3 08 Dec 09:01:38 09:05:54 80° 283° (WNW) 09:10:03 435.000/436.395/437.385
HO-68 08 Dec 09:12:13 09:18:38 36° 294° (WNW) 09:25:02 435.675
UNISAT 6 08 Dec 09:24:02 09:28:36 54° 74° (ENE) 09:33:08 437.425
ZACube-1 08 Dec 09:37:21 09:41:25 49° 286° (WNW) 09:45:24 437.345
AAUSAT CUBESAT 2 08 Dec 09:37:34 09:40:39 21° 290° (WNW) 09:43:44 437.432
JAS-2 08 Dec 09:43:33 09:48:12 22° 67° (ENE) 09:52:28 435.910
FUNcube-1 08 Dec 09:43:40 09:47:40 45° 286° (WNW) 09:51:36 145.935
PRISM 08 Dec 09:45:06 09:47:36 16° 266° (W) 09:50:06 437.425
DANDE 08 Dec 09:50:16 09:54:54 54° 98° (E) 09:58:25 436.750
TIGRISAT 08 Dec 09:53:06 09:57:47 78° 257° (WSW) 10:02:28 435.000
QB50P1 08 Dec 09:54:38 09:55:33 11° 65° (ENE) 09:56:27 145.935-145.965
ANTELSAT 08 Dec 09:55:16 09:59:56 69° 259° (W) 10:04:34 437.575/2403.000
JUGNU 08 Dec 10:03:33 10:06:08 13° 169° (S) 10:08:43 437.505
CUBEBUG 2 08 Dec 10:03:39 10:04:33 11° 296° (WNW) 10:05:27 437.445
Oscar 11 08 Dec 10:11:35 10:15:02 24° 290° (WNW) 10:18:28 145.826/435.025
DELFI C3 08 Dec 10:13:52 10:17:47 59° 285° (WNW) 10:21:43 145.870
POPSAT HIP 1 08 Dec 10:14:12 10:17:08 18° 68° (ENE) 10:20:03 437.405
AO-85 08 Dec 10:34:10 10:38:05 62° 59° (ENE) 10:41:54 145.980
PCSat 08 Dec 10:39:20 10:44:38 59° 113° (ESE) 10:49:58 145.827
BUGSAT 1 08 Dec 10:40:51 10:42:12 11° 65° (ENE) 10:43:34 437.445
HUMSAT D 08 Dec 10:43:20 10:47:19 54° 285° (WNW) 10:51:16 437.325/437.525
Cosmos 2499 08 Dec 10:58:40 11:06:26 38° 74° (ENE) 11:13:38 435.465 / 435.565
ESTCUBE 1 08 Dec 11:01:28 11:05:19 27° 96° (E) 11:09:09 437.505/2401.250
UNISAT 6 08 Dec 11:03:26 11:05:32 13° 268° (W) 11:07:39 437.425
NANOSAT C BR1 08 Dec 11:05:29 11:09:43 70° 76° (ENE) 11:13:58 145.865
GONETS M04 08 Dec 11:08:42 11:16:50 41° 76° (ENE) 11:24:57
QB50P2 08 Dec 11:13:48 11:18:05 80° 258° (WSW) 11:22:23 145.880/145.840
POLYITAN 1 08 Dec 11:14:15 11:18:32 84° 258° (WSW) 11:22:51 437.675
CUBEBUG 1 08 Dec 11:16:56 11:20:32 24° 96° (E) 11:24:05 437.445
RS-15 08 Dec 11:21:09 11:27:57 16° 348° (NNW) 11:34:48 29.354- 29.394
DUCHIFAT 1 08 Dec 11:26:21 11:30:36 72° 258° (WSW) 11:34:51 145.980
QB50P1 08 Dec 11:26:32 11:30:45 60° 259° (W) 11:35:00 145.935-145.965
JAS-2 08 Dec 11:26:39 11:32:59 50° 259° (W) 11:38:38 435.910
VELOX 1 08 Dec 11:34:16 11:37:54 24° 96° (E) 11:41:31 145.980
DX 1 08 Dec 11:40:14 11:42:32 14° 93° (E) 11:44:47 434.975-435.025
UKube-1 08 Dec 11:43:55 11:44:28 10° 92° (E) 11:45:02 .
SPROUT 08 Dec 11:48:38 11:52:01 22° 95° (E) 11:55:23 437.525
POPSAT HIP 1 08 Dec 11:48:46 11:52:37 33° 262° (W) 11:56:31 437.405
JUGNU 08 Dec 11:50:41 11:54:23 17° 179° (S) 11:58:04 437.505
BUGSAT 1 08 Dec 12:12:54 12:17:02 55° 260° (W) 12:21:13 437.445
50 SAT 08 Dec 12:13:55 12:17:27 61° 101° (E) 12:20:58 437.505
Oscar 19 08 Dec 12:16:14 12:20:48 34° 70° (ENE) 12:25:23 437.125/150
PCSat 08 Dec 12:24:40 12:28:25 19° 310° (NW) 12:32:11 145.827
AISAT 08 Dec 12:33:14 12:37:40 64° 285° (WNW) 12:42:05 437.250
Gurwin Techsat 1B 08 Dec 12:33:16 12:37:34 26° 67° (ENE) 12:41:53 435.225
ESTCUBE 1 08 Dec 12:38:21 12:41:58 24° 291° (WNW) 12:45:36 437.505/2401.250
AO-7 08 Dec 12:50:03 12:52:52 12° 49° (NE) 12:55:41 29.400- 29.500
Cosmos 2499 08 Dec 12:51:50 12:59:26 39° 274° (W) 13:06:32 435.465 / 435.565
CUBEBUG 1 08 Dec 12:53:00 12:56:42 26° 290° (WNW) 13:00:23 437.445
TISAT 1 08 Dec 13:01:18 13:04:39 22° 96° (E) 13:07:57 437.305
GONETS M04 08 Dec 13:05:41 13:13:28 38° 273° (W) 13:21:16
VELOX 1 08 Dec 13:10:32 13:14:16 26° 290° (WNW) 13:17:57 145.980
DX 1 08 Dec 13:14:43 13:18:53 44° 287° (WNW) 13:23:02 434.975-435.025
UKube-1 08 Dec 13:16:33 13:20:48 57° 286° (WNW) 13:25:03 .
SPROUT 08 Dec 13:24:19 13:27:51 26° 290° (WNW) 13:31:23 437.525
BEESAT 3 08 Dec 13:27:19 13:31:16 59° 59° (ENE) 13:35:10 437.485
SRMSAT 08 Dec 13:34:41 13:38:07 16° 175° (S) 13:41:33 437.500
RS-15 08 Dec 13:39:01 13:47:38 21° 26° (NNE) 13:56:08 29.354- 29.394
JUGNU 08 Dec 13:39:40 13:42:38 14° 189° (S) 13:45:35 437.505
M-CUBED/EXP-1 PRIME 08 Dec 13:52:16 13:54:36 14° 96° (E) 13:56:52 437.505
Oscar 19 08 Dec 13:56:00 14:00:06 24° 264° (W) 14:04:15 437.125/150
BEESAT 2 08 Dec 14:02:06 14:06:07 63° 60° (ENE) 14:10:04 435.950
SWISSCUBE 08 Dec 14:09:31 14:13:35 28° 97° (E) 14:17:38 437.505
Gurwin Techsat 1B 08 Dec 14:12:29 14:17:18 35° 262° (W) 14:22:09 435.225
BEESAT 08 Dec 14:13:17 14:17:20 27° 97° (E) 14:21:21 436.000
ITAMSAT 1 08 Dec 14:28:48 14:34:00 74° 75° (ENE) 14:39:13 435.822/435.867
AO-7 08 Dec 14:35:51 14:43:59 63° 68° (ENE) 14:52:10 29.400- 29.500
TISAT 1 08 Dec 14:36:44 14:40:11 25° 290° (WNW) 14:43:36 437.305
ITUPSAT 1 08 Dec 14:42:16 14:46:57 56° 101° (E) 14:51:36 437.325
MOZHAYETS 4 08 Dec 14:56:15 14:59:23 18° 94° (E) 15:02:29
ISS 08 Dec 14:59:29 15:02:44 75° 137° (SE) 15:06:02 145.825
AUBIESAT-1 08 Dec 15:10:08 15:14:42 89° 109° (ESE) 15:19:00 437.475
AIST 2 08 Dec 15:17:16 15:18:33 11° 45° (NE) 15:19:51 435.215
O/OREOS (USA 219) 08 Dec 15:18:33 15:23:03 63° 108° (ESE) 15:27:34 437.305
SRMSAT 08 Dec 15:23:06 15:26:31 16° 185° (S) 15:29:57 437.500
M-CUBED/EXP-1 PRIME 08 Dec 15:24:50 15:29:20 50° 291° (WNW) 15:33:36 437.505
SWISSCUBE 08 Dec 15:47:20 15:51:14 26° 291° (WNW) 15:55:07 437.505
BRITE-PL 08 Dec 15:50:46 15:53:59 21° 67° (ENE) 15:57:23 437.365/2234.400
BEESAT 08 Dec 15:51:03 15:54:59 26° 291° (WNW) 15:58:54 436.000
RS-15 08 Dec 15:51:20 16:03:34 60° 54° (NE) 16:15:19 29.354- 29.394
ITAMSAT 1 08 Dec 16:12:39 16:13:56 11° 269° (W) 16:15:11 435.822/435.867
ITUPSAT 1 08 Dec 16:21:54 16:24:16 14° 296° (WNW) 16:26:38 437.325
CUTE-I 08 Dec 16:25:31 16:28:06 14° 63° (ENE) 16:30:42 437.470
AO-7 08 Dec 16:30:41 16:37:09 25° 264° (W) 16:43:41 29.400- 29.500
MOZHAYETS 4 08 Dec 16:32:27 16:36:36 36° 288° (WNW) 16:40:45
ISS 08 Dec 16:37:41 16:39:35 14° 333° (NNW) 16:41:29 145.825
NOAA 15 08 Dec 16:37:58 16:41:40 20° 66° (ENE) 16:45:23 137.62
STARS 08 Dec 16:40:36 16:44:51 46° 100° (E) 16:49:04 437.465
KKS-1 08 Dec 16:42:14 16:46:43 72° 285° (WNW) 16:51:09 437.445
CUBESAT XI-V 08 Dec 16:42:21 16:46:40 36° 98° (E) 16:50:59 437.345
DOVE 4 08 Dec 16:47:18 16:50:08 16° 64° (ENE) 16:53:03 437.250
GOMX 1 08 Dec 16:49:18 16:53:30 37° 71° (ENE) 16:58:02 467.674
Cubesat XI-IV 08 Dec 16:50:30 16:54:42 24° 67° (ENE) 16:58:55 437.490
HORYU 2 08 Dec 16:51:14 16:55:44 83° 74° (ENE) 17:00:14 437.375
AIST 2 08 Dec 16:53:18 16:57:32 76° 242° (WSW) 17:01:44 435.215
NOAA 18 08 Dec 16:56:53 17:00:36 19° 64° (ENE) 17:04:19 137.9125
O/OREOS (USA 219) 08 Dec 17:01:10 17:02:53 12° 304° (WNW) 17:04:34 437.305
Cosmos 2491 08 Dec 17:09:40 17:17:28 35° 74° (ENE) 17:25:13 435.465 / 435.565
BRITE-PL 08 Dec 17:28:30 17:32:16 29° 265° (W) 17:36:16 437.365/2234.400
YUBILEINY 08 Dec 17:34:13 17:40:22 22° 81° (E) 17:46:30 435.215
CINEMA 3 08 Dec 17:45:13 17:48:08 16° 65° (ENE) 17:51:03 145.822/145.860
LilacSat-2 08 Dec 17:49:47 17:53:37 78° 258° (WSW) 17:57:28 437.200
HO-68 08 Dec 17:51:17 17:56:30 22° 61° (ENE) 18:01:44 435.675
CUTE-I 08 Dec 18:02:09 18:07:30 70° 258° (WSW) 18:12:52 437.470
RS-15 08 Dec 18:04:40 18:15:26 38° 255° (WSW) 18:25:53 29.354- 29.394
STRAND 1 08 Dec 18:15:45 18:16:43 10° 91° (E) 18:17:42 437.568
NOAA 15 08 Dec 18:16:05 18:21:05 45° 261° (W) 18:26:06 137.62
STARS 08 Dec 18:18:26 18:20:46 14° 294° (WNW) 18:23:05 437.465
CUBESAT XI-V 08 Dec 18:20:26 18:23:45 20° 292° (WNW) 18:27:05 437.345
DOVE 4 08 Dec 18:22:34 18:27:14 54° 261° (W) 18:32:13 437.250
GOMX 1 08 Dec 18:28:32 18:31:45 19° 268° (W) 18:35:08 467.674
Cubesat XI-IV 08 Dec 18:29:31 18:34:30 39° 262° (W) 18:39:31 437.490
NOAA 18 08 Dec 18:35:22 18:40:47 54° 259° (W) 18:46:14 137.9125
CUTE 1.7 + AOD 2 08 Dec 18:39:14 18:42:51 29° 72° (ENE) 18:46:29 437.475
Cosmos 2504 08 Dec 18:47:41 18:54:54 34° 85° (E) 19:02:26 435.465 / 435.565
AAUSAT CUBESAT 2 08 Dec 18:50:49 18:52:37 13° 67° (ENE) 18:54:26 437.432
CANX-2 08 Dec 18:57:17 19:01:24 57° 75° (ENE) 19:05:32 2200.000
SO-50 08 Dec 19:01:37 19:06:17 54° 116° (ESE) 19:10:54 436.795
Cosmos 2491 08 Dec 19:06:16 19:14:20 45° 272° (W) 19:22:26 435.465 / 435.565
CUSAT 1 08 Dec 19:14:54 19:17:49 18° 79° (ENE) 19:21:15 437.405
SEEDS 08 Dec 19:16:40 19:20:43 54° 75° (ENE) 19:24:47 437.485
CUBEBUG 2 08 Dec 19:18:52 19:23:11 36° 72° (ENE) 19:27:30 437.445
CINEMA 3 08 Dec 19:19:54 19:24:43 54° 261° (W) 19:29:39 145.822/145.860
COMPASS 1 08 Dec 19:21:44 19:25:34 39° 73° (ENE) 19:29:25 437.405
YUBILEINY 08 Dec 19:27:36 19:36:14 68° 279° (W) 19:44:59 435.215
Oscar 11 08 Dec 19:28:40 19:30:57 14° 67° (ENE) 19:33:12 145.826/435.025
PCSat 08 Dec 19:30:29 19:35:03 27° 54° (NE) 19:39:35 145.827
HO-68 08 Dec 19:36:29 19:43:34 65° 257° (WSW) 19:50:43 435.675
AIST 1 08 Dec 19:43:00 19:47:17 74° 277° (W) 19:51:39
STRAND 1 08 Dec 19:51:16 19:56:21 73° 285° (WNW) 20:01:25 437.568
UWE-3 08 Dec 19:54:53 19:59:27 57° 75° (ENE) 20:03:58 435.000/436.395/437.385
CUTE 1.7 + AOD 2 08 Dec 20:15:40 20:18:40 19° 265° (W) 20:21:42 437.475
AAUSAT CUBESAT 2 08 Dec 20:23:46 20:27:40 44° 261° (W) 20:31:36 437.432
ZACube-1 08 Dec 20:29:17 20:33:51 84° 76° (ENE) 20:38:21 437.345
DANDE 08 Dec 20:29:39 20:32:07 20° 80° (E) 20:35:02 436.750
FUNcube-1 08 Dec 20:35:16 20:39:49 90° 333° (NNW) 20:44:18 145.935
Cosmos 2504 08 Dec 20:39:55 20:47:54 48° 283° (WNW) 20:56:21 435.465 / 435.565
SO-50 08 Dec 20:43:50 20:47:03 18° 312° (NW) 20:50:15 436.795
CUSAT 1 08 Dec 20:55:43 20:59:33 34° 263° (W) 21:04:25 437.405
DELFI C3 08 Dec 20:56:21 21:00:07 48° 75° (ENE) 21:03:54 145.870
CUBEBUG 2 08 Dec 20:56:23 20:59:50 20° 266° (W) 21:03:17 437.445
COMPASS 1 08 Dec 20:59:15 21:01:15 13° 267° (W) 21:03:17 437.405
Oscar 11 08 Dec 21:02:33 21:06:39 44° 261° (W) 21:10:47 145.826/435.025
PCSat 08 Dec 21:13:31 21:18:30 38° 250° (WSW) 21:23:27 145.827
UNISAT 6 08 Dec 21:20:38 21:22:37 13° 92° (E) 21:24:34 437.425
PRISM 08 Dec 21:27:17 21:31:28 84° 100° (E) 21:35:38 437.425
ISS 08 Dec 21:29:59 21:32:50 26° 34° (NNE) 21:35:41 145.825
HUMSAT D 08 Dec 21:31:04 21:35:14 67° 76° (ENE) 21:39:23 437.325/437.525
YUBILEINY 08 Dec 21:32:58 21:34:46 11° 299° (WNW) 21:36:36 435.215
UWE-3 08 Dec 21:34:27 21:36:10 12° 268° (W) 21:37:52 435.000/436.395/437.385
TIGRISAT 08 Dec 21:48:16 21:51:54 26° 96° (E) 21:55:27 435.000
ANTELSAT 08 Dec 21:50:24 21:54:12 29° 97° (E) 21:57:55 437.575/2403.000
ESTCUBE 1 08 Dec 21:58:54 22:01:57 18° 67° (ENE) 22:05:00 437.505/2401.250
PHONESAT 2.4 08 Dec 22:03:16 22:05:17 19° 148° (SSE) 22:07:19 2401.200-2431.200
CUBEBUG 1 08 Dec 22:11:12 22:13:35 15° 66° (ENE) 22:15:58 437.445
DANDE 08 Dec 22:12:58 22:14:41 13° 264° (W) 22:16:34 436.750
VELOX 1 08 Dec 22:29:38 22:32:18 16° 66° (ENE) 22:34:58 145.980
JAS-2 08 Dec 22:39:11 22:43:02 20° 95° (E) 22:47:05 435.910
SPROUT 08 Dec 22:40:40 22:42:37 13° 66° (ENE) 22:44:34 437.525
50 SAT 08 Dec 22:47:30 22:49:39 16° 69° (ENE) 22:51:49 437.505
NANOSAT C BR1 08 Dec 22:54:23 22:56:29 13° 93° (E) 22:58:35 145.865
UNISAT 6 08 Dec 22:55:24 22:59:34 44° 287° (WNW) 23:03:37 437.425
QB50P2 08 Dec 23:02:23 23:05:32 20° 95° (E) 23:08:39 145.880/145.840
POLYITAN 1 08 Dec 23:02:56 23:05:57 19° 95° (E) 23:08:57 437.675
ISS 08 Dec 23:06:26 23:09:18 27° 229° (SW) 23:12:09 145.825
DUCHIFAT 1 08 Dec 23:13:58 23:17:12 21° 95° (E) 23:20:25 145.980
QB50P1 08 Dec 23:14:30 23:18:03 26° 96° (E) 23:21:34 145.935-145.965
TIGRISAT 08 Dec 23:25:02 23:28:26 23° 291° (WNW) 23:31:46 435.000
AISAT 08 Dec 23:27:13 23:31:37 77° 76° (ENE) 23:36:04 437.250
ANTELSAT 08 Dec 23:27:30 23:30:42 20° 292° (WNW) 23:33:51 437.575/2403.000
Cosmos 2499 08 Dec 23:30:37 23:38:04 34° 85° (E) 23:45:44 435.465 / 435.565
ESTCUBE 1 08 Dec 23:34:22 23:38:27 35° 262° (W) 23:42:35 437.505/2401.250
POPSAT HIP 1 08 Dec 23:35:56 23:40:01 46° 99° (E) 23:44:03 437.405
PHONESAT 2.4 08 Dec 23:37:40 23:40:19 60° 343° (NNW) 23:42:57 2401.200-2431.200
CUBEBUG 1 08 Dec 23:45:17 23:49:26 44° 261° (W) 23:53:39 437.445
TISAT 1 08 Dec 23:51:34 23:53:23 13° 66° (ENE) 23:55:13 437.305
BUGSAT 1 08 Dec 23:58:01 00:01:28 25° 96° (E) 00:04:52 437.445
VELOX 1 09 Dec 00:04:14 00:08:22 41° 261° (W) 00:12:35 145.980
GONETS M04 09 Dec 00:05:49 00:14:09 53° 90° (E) 00:22:29
DX 1 09 Dec 00:06:47 00:11:06 75° 257° (WSW) 00:15:29 434.975-435.025
UKube-1 09 Dec 00:07:41 00:11:59 81° 77° (ENE) 00:16:19 .
SPROUT 09 Dec 00:13:56 00:18:05 49° 260° (W) 00:22:16 437.525
50 SAT 09 Dec 00:19:51 00:22:44 24° 263° (W) 00:25:37 437.505
JAS-2 09 Dec 00:23:22 00:28:15 41° 288° (WNW) 00:33:27 435.910
NANOSAT C BR1 09 Dec 00:28:24 00:32:22 41° 287° (WNW) 00:36:17 145.865
Oscar 19 09 Dec 00:31:47 00:34:42 15° 92° (E) 00:37:35 437.125/150
M-CUBED/EXP-1 PRIME 09 Dec 00:36:30 00:37:50 11° 58° (ENE) 00:39:11 437.505
QB50P2 09 Dec 00:37:41 00:41:17 28° 289° (WNW) 00:44:52 145.880/145.840
POLYITAN 1 09 Dec 00:38:04 00:41:44 29° 289° (WNW) 00:45:23 437.675
AO-85 09 Dec 00:44:51 00:49:38 45° 115° (ESE) 00:54:06 145.980
DUCHIFAT 1 09 Dec 00:49:20 00:52:49 26° 290° (WNW) 00:56:17 145.980
QB50P1 09 Dec 00:50:24 00:53:39 22° 291° (WNW) 00:56:53 145.935-145.965
Gurwin Techsat 1B 09 Dec 00:54:02 00:55:55 12° 91° (E) 00:57:48 435.225
SWISSCUBE 09 Dec 01:13:25 01:17:13 24° 68° (ENE) 01:21:02 437.505
POPSAT HIP 1 09 Dec 01:13:25 01:15:20 13° 294° (WNW) 01:17:16 437.405
PHONESAT 2.4 09 Dec 01:13:26 01:15:46 27° 358° (N) 01:18:06 2401.200-2431.200
BEESAT 09 Dec 01:17:09 01:20:55 24° 68° (ENE) 01:24:41 436.000
Cosmos 2499 09 Dec 01:22:39 01:30:49 48° 283° (WNW) 01:39:21 435.465 / 435.565
TISAT 1 09 Dec 01:24:27 01:28:33 49° 260° (W) 01:32:41 437.305
O/OREOS (USA 219) 09 Dec 01:31:25 01:35:54 74° 70° (ENE) 01:40:20 437.305
BUGSAT 1 09 Dec 01:33:29 01:36:41 22° 291° (WNW) 01:39:50 437.445
ITUPSAT 1 09 Dec 01:46:02 01:50:37 47° 73° (ENE) 01:55:11 437.325
AUBIESAT-1 09 Dec 01:52:26 01:56:32 66° 71° (ENE) 02:00:57 437.475
MOZHAYETS 4 09 Dec 01:56:31 01:58:39 13° 65° (ENE) 02:00:48
GONETS M04 09 Dec 02:03:53 02:11:14 30° 288° (WNW) 02:18:37
M-CUBED/EXP-1 PRIME 09 Dec 02:07:33 02:11:36 65° 254° (WSW) 02:16:01 437.505
Oscar 19 09 Dec 02:09:13 02:14:18 56° 287° (WNW) 02:19:22 437.125/150
AO-85 09 Dec 02:26:35 02:30:12 20° 309° (NW) 02:33:39 145.980
Gurwin Techsat 1B 09 Dec 02:31:00 02:36:19 71° 285° (WNW) 02:41:35 435.225
AO-7 09 Dec 02:41:49 02:48:13 24° 95° (E) 02:54:34 29.400- 29.500
ITAMSAT 1 09 Dec 02:44:57 02:49:35 32° 98° (E) 02:54:10 435.822/435.867
PHONESAT 2.4 09 Dec 02:48:44 02:51:17 43° 15° (NNE) 02:53:50 2401.200-2431.200
SWISSCUBE 09 Dec 02:50:39 02:54:50 30° 263° (W) 02:59:01 437.505
BEESAT 09 Dec 02:54:18 02:58:30 31° 262° (W) 03:02:44 436.000
BEESAT 3 09 Dec 03:15:40 03:18:26 19° 111° (ESE) 03:21:15 437.485
ITUPSAT 1 09 Dec 03:25:51 03:28:38 15° 267° (W) 03:31:25 437.325
MOZHAYETS 4 09 Dec 03:30:50 03:35:19 54° 260° (W) 03:39:49
STARS 09 Dec 03:34:28 03:38:16 29° 70° (ENE) 03:42:06 437.465
SO-50 09 Dec 03:36:21 03:39:55 22° 50° (NE) 03:43:25 436.795
KKS-1 09 Dec 03:37:00 03:41:26 72° 76° (ENE) 03:45:55 437.445
CUBESAT XI-V 09 Dec 03:43:10 03:46:55 26° 70° (ENE) 03:50:42 437.345
BEESAT 2 09 Dec 03:51:40 03:54:41 21° 111° (ESE) 03:57:43 435.950
BRITE-PL 09 Dec 03:59:10 04:00:52 11° 90° (E) 04:02:34 437.365/2234.400
